Location: Strawberry
(45.6646°N, 111.9596°W)
Time: 09:19:50
(UTC+00:00)

ITUPSAT 1 - Visible Passes

Search period start: 26 November 2022 00:00
Search period end: 06 December 2022 00:00
Orbit: 700 x 710 km, 98.5° (Epoch: 25 November)

Date Brightness Start Highest point End Pass type
(mag) Time Alt. Az. Time Alt. Az. Time Alt. Az.
27 Nov ? 13:32:20 10° ENE 13:33:25 11° NE 13:34:30 10° NE visible
30 Nov ? 14:02:48 10° ESE 14:06:14 20° ENE 14:09:41 10° NNE visible
02 Dec ? 13:53:00 10° E 13:55:57 16° ENE 13:58:54 10° NNE visible
04 Dec ? 13:43:24 10° E 13:45:40 13° ENE 13:47:58 10° NNE visible
